User: anonymous   Login
Location: Asheville, NC
(35.6000°N, 82.5500°W)
Time: 02:35:15
(UTC-04:00)
Language:

UKube-1 - Orbit

View from above orbital plane
View from above orbital plane
View from above satellite
View from above satellite

Ground track
Ground track

The orbit data is extracted from the following two-line orbital elements,

1 40074U 14037F   18198.83426391  .00000136  00000-0  23569-4 0  9992
2 40074  98.3890 337.6445 0003861 207.9375 152.1633 14.83824752217844
Epoch (UTC): 17 July 2018 20:01:20
Eccentricity: 0.0003861
inclination: 98.3890°
perigee height: 614 km
apogee height: 620 km
right ascension of ascending node: 337.6445°
argument of perigee: 207.9375°
revolutions per day: 14.83824752
mean anomaly at epoch: 152.1633°
orbit number at epoch: 21784

The dashed part of the orbit path shows where the satellite is in the earth's shadow,  

DLR